Weather History for Prestwick, United Kingdom

Change the Weather History Date:

Tuesday, December 10, 2013

  Actual Average Record
Temperature  
Mean Temperature 52 °F -  
Max Temperature 53 °F 44 °F 55 °F (1998)
Min Temperature 50 °F 34 °F 24 °F (2012)
Degree Days  
Heating Degree Days 14    
Growing Degree Days 2 (Base 50)    
Moisture  
Dew Point 47 °F    
Average Humidity 81    
Maximum Humidity 88    
Minimum Humidity 71    
Precipitation  
Precipitation 0.00 in - - ()
Sea Level Pressure  
Sea Level Pressure 30.16 in    
Wind  
Wind Speed 13 mph ()    
Max Wind Speed 18 mph    
Max Gust Speed -    
Visibility 6.2 miles    
Events Rain    
Averages and records for this station are not official NWS values.
T = Trace of Precipitation, MM = Missing Value Source: Averaged Metar Reports

Daily Weather History Graph

Daily Weather History Graph

Search for Another Location

Airport:

Trip Planner

Search our weather history database for the weather conditions in past years. The results will help you decide how hot, cold, wet, or windy it might be!

Date:

Astronomy

Dec. 10, 2013 Rise Set
Actual Time 8:35 AM GMT 3:47 PM GMT
Civil Twilight 7:49 AM GMT 4:32 PM GMT
Nautical Twilight 7:01 AM GMT 5:20 PM GMT
Astronomical Twilight 6:16 AM GMT 6:05 PM GMT
Moon 12:40 PM GMT (12/10) 12:33 AM GMT (12/10)
Length of Visible Light 8h 43m
Length of Day
7h 11m
First Quarter, 59% of the Moon is Illuminated
Dec 10
First Quarter
Dec 17
Full
Dec 25
Last Quarter
Jan 1
New
Jan 8
First Quarter

Hourly Weather History & Observations

Time (GMT) Temp. Dew Point Humidity Pressure Visibility Wind Dir Wind Speed Gust Speed Precip Events Conditions
12:50 AM 50.0 °F 41.0 °F 71% 30.15 in 6.2 mi South 15.0 mph - N/A   Mostly Cloudy
1:50 AM 50.0 °F 42.8 °F 76% 30.15 in 6.2 mi South 16.1 mph - N/A   Mostly Cloudy
2:50 AM 50.0 °F 44.6 °F 82% 30.15 in 6.2 mi South 12.7 mph - N/A   Mostly Cloudy
3:50 AM 50.0 °F 44.6 °F 82% 30.15 in 6.2 mi South 13.8 mph - N/A   Mostly Cloudy
5:20 AM 50.0 °F 46.4 °F 87% 30.15 in 6.2 mi SSE 11.5 mph - N/A   Mostly Cloudy
6:20 AM 50.0 °F 46.4 °F 87% 30.12 in 6.2 mi South 12.7 mph - N/A   Mostly Cloudy
6:50 AM 50.0 °F 46.4 °F 87% 30.15 in 6.2 mi South 11.5 mph - N/A   Mostly Cloudy
7:20 AM 51.8 °F 46.4 °F 82% 30.15 in 6.2 mi South 12.7 mph - N/A   Mostly Cloudy
7:50 AM 51.8 °F 46.4 °F 82% 30.15 in 6.2 mi South 15.0 mph - N/A   Mostly Cloudy
8:20 AM 51.8 °F 46.4 °F 82% 30.15 in 6.2 mi South 16.1 mph - N/A   Mostly Cloudy
8:50 AM 51.8 °F 48.2 °F 88% 30.15 in 6.2 mi South 11.5 mph - N/A   Mostly Cloudy
9:20 AM 53.6 °F 48.2 °F 82% 30.15 in 6.2 mi South 12.7 mph - N/A   Mostly Cloudy
9:50 AM 53.6 °F 48.2 °F 82% 30.15 in 6.2 mi South 13.8 mph - N/A   Mostly Cloudy
10:20 AM 53.6 °F 48.2 °F 82% 30.15 in 6.2 mi South 17.3 mph - N/A   Mostly Cloudy
10:50 AM 53.6 °F 48.2 °F 82% 30.18 in 6.2 mi South 13.8 mph - N/A   Mostly Cloudy
11:20 AM 53.6 °F 46.4 °F 77% 30.18 in 6.2 mi SSW 16.1 mph - N/A   Mostly Cloudy
11:50 AM 53.6 °F 48.2 °F 82% 30.18 in 6.2 mi South 15.0 mph - N/A   Mostly Cloudy
12:20 PM 53.6 °F 46.4 °F 77% 30.18 in 6.2 mi South 13.8 mph - N/A   Mostly Cloudy
12:50 PM 53.6 °F 46.4 °F 77% 30.18 in 6.2 mi South 11.5 mph - N/A   Scattered Clouds
1:20 PM 53.6 °F 46.4 °F 77% 30.15 in 6.2 mi South 15.0 mph - N/A   Scattered Clouds
1:50 PM 51.8 °F 44.6 °F 76% 30.15 in 6.2 mi South 15.0 mph - N/A   Partly Cloudy
2:20 PM 51.8 °F 44.6 °F 76% 30.15 in 6.2 mi South 18.4 mph - N/A   Partly Cloudy
2:50 PM 51.8 °F 44.6 °F 76% 30.15 in 6.2 mi South 18.4 mph - N/A   Partly Cloudy
3:20 PM 51.8 °F 44.6 °F 76% 30.15 in 6.2 mi South 15.0 mph - N/A   Scattered Clouds
3:50 PM 51.8 °F 44.6 °F 76% 30.15 in 6.2 mi South 16.1 mph - N/A   Scattered Clouds
4:20 PM 51.8 °F 44.6 °F 76% 30.15 in 6.2 mi SSE 15.0 mph - N/A   Mostly Cloudy
4:50 PM 51.8 °F 44.6 °F 76% 30.15 in 6.2 mi SSE 12.7 mph - N/A   Mostly Cloudy
5:20 PM 51.8 °F 46.4 °F 82% 30.15 in 6.2 mi South 12.7 mph - N/A   Mostly Cloudy
5:50 PM 51.8 °F 46.4 °F 82% 30.15 in 6.2 mi South 15.0 mph - N/A   Mostly Cloudy
6:20 PM 53.6 °F 48.2 °F 82% 30.15 in 6.2 mi South 18.4 mph - N/A   Mostly Cloudy
6:50 PM 53.6 °F 48.2 °F 82% 30.15 in 6.2 mi South 17.3 mph - N/A   Mostly Cloudy
7:20 PM 53.6 °F 48.2 °F 82% 30.15 in 6.2 mi South 15.0 mph - N/A   Mostly Cloudy
7:50 PM 53.6 °F 48.2 °F 82% 30.15 in 6.2 mi South 15.0 mph - N/A   Mostly Cloudy
8:20 PM 53.6 °F 48.2 °F 82% 30.15 in 6.2 mi South 12.7 mph - N/A   Mostly Cloudy
8:50 PM 53.6 °F 48.2 °F 82% 30.15 in 6.2 mi South 13.8 mph - N/A   Mostly Cloudy
9:20 PM 53.6 °F 48.2 °F 82% 30.18 in 6.2 mi South 11.5 mph - N/A   Mostly Cloudy
9:50 PM 53.6 °F 50.0 °F 88% 30.18 in 6.2 mi South 13.8 mph - N/A Rain Light Rain
10:20 PM 53.6 °F 50.0 °F 88% 30.18 in 6.2 mi South 11.5 mph - N/A Rain Light Rain
10:50 PM 53.6 °F 50.0 °F 88% 30.18 in 6.2 mi South 11.5 mph - N/A Rain Light Rain
11:20 PM 53.6 °F 50.0 °F 88% 30.21 in 6.2 mi South 6.9 mph - N/A   Mostly Cloudy
11:50 PM 53.6 °F 50.0 °F 88% 30.21 in 6.2 mi South 9.2 mph - N/A   Mostly Cloudy